Home   Weather   Wheaton   Past weeks

Flag for USA Past Weather in Wheaton, Illinois, USA — Yesterday and Last 2 Weeks

Now
37 °F

Overcast.


Feels Like: 29 °F
Forecast: 35 / 40 °F
Wind: 12 mph from Northwest

Location: Dupage Airport

Current Time: Jan 24, 2017 at 3:38:33 am

Latest Report: Jan 24, 2017 at 3:04 am


Visibility: 10 mi

Pressure: 29.83 "Hg

Humidity: 82%

Dew Point: 32 °F

Location of WheatonLocation

Past Weather in Wheaton — Graph

°F

Wheaton Temperature Yesterday

Maximum temperature yesterday: 41 °F (at 11:52 am)
Minimum temperature yesterday: 38 °F (at 12:42 am)
Average temperature yesterday: 39 °F

High & Low Weather Summary for the Past Weeks

 TemperatureHumidityPressure
High58 °F (Jan 21, 1:52 pm)97% (Jan 17, 2:37 am)30.81 "Hg (Jan 17, 2:37 am)
Low16 °F (Jan 13, 4:52 am)40% (Jan 15, 2:52 pm)29.21 "Hg (Jan 10, 1:31 pm)
Average34 °F83%29.95 "Hg
* Reported Jan 9 1:52 am — Jan 24 1:52 am, Wheaton, Weather by CustomWeather, © 2017

Note: Actual official high and low records may vary slightly from our data, if they occured in-between our weather recording intervals... More about our weather records

Advertising

Wheaton Weather History for the Previous 24 Hours

Scroll right to see more
 ConditionsComfort  
Time TempWeatherWind HumidityBarometerVisibility
1:52 am
Tue, Jan 24
37 °FLow clouds.8 mph82%29.83 "Hg9 mi
1:34 am37 °FLow clouds.8 mph82%29.81 "Hg10 mi
12:52 am38 °FOvercast.8 mph79%29.82 "Hg10 mi
11:52 pm
Mon, Jan 23
38 °FOvercast.9 mph83%29.83 "Hg10 mi
10:52 pm39 °FOvercast.8 mph79%29.83 "Hg10 mi
9:52 pm39 °FOvercast.5 mph82%29.83 "Hg10 mi
8:52 pm39 °FOvercast.7 mph82%29.83 "Hg10 mi
7:59 pm39 °FOvercast.3 mph82%29.80 "Hg10 mi
6:52 pm39 °FOvercast.6 mph79%29.80 "Hg10 mi
5:52 pm40 °FOvercast.9 mph77%29.79 "Hg10 mi
4:52 pm40 °FOvercast.10 mph77%29.78 "Hg10 mi
3:52 pm41 °FMore clouds than sun.8 mph76%29.77 "Hg10 mi
2:52 pm41 °FOvercast.9 mph76%29.76 "Hg10 mi
2:19 pm41 °FOvercast.7 mph76%29.74 "Hg10 mi
1:52 pm41 °FOvercast.7 mph80%29.75 "Hg10 mi
12:52 pm41 °FOvercast.13 mph80%29.75 "Hg10 mi
11:52 am41 °FOvercast.9 mph80%29.77 "Hg10 mi
10:52 am39 °FOvercast.7 mph82%29.79 "Hg10 mi
9:52 am39 °FOvercast.14 mph82%29.79 "Hg10 mi
8:52 am38 °FOvercast.9 mph86%29.78 "Hg9 mi
7:52 am38 °FOvercast.8 mph86%29.76 "Hg8 mi
7:40 am38 °FMostly cloudy.8 mph86%29.74 "Hg9 mi
7:15 am38 °FOvercast.9 mph86%29.73 "Hg10 mi
6:52 am38 °FOvercast.9 mph83%29.74 "Hg10 mi
6:21 am38 °FOvercast.8 mph86%29.74 "Hg10 mi
5:52 am38 °FLow clouds.9 mph83%29.75 "Hg10 mi
4:52 am38 °FLow clouds.12 mph86%29.73 "Hg10 mi
3:52 am38 °FLow clouds.10 mph86%29.72 "Hg8 mi
3:09 am38 °FMostly cloudy.9 mph86%29.70 "Hg9 mi
Weather by CustomWeather, © 2017

See weather overviewHow to use our weather pages